Time,TemperatureF,DewpointF,PressureIn,WindDirection,WindDirectionDegrees,WindSpeedMPH,WindSpeedGustMPH,Humidity,HourlyPrecipIn,Conditions,Clouds,dailyrainin,SoftwareType,DateUTC
2013-03-31 00:06:00,34.7,32.9,29.84,ENE,59,0.0,0.0,93,0.00,,---,0.00,VWS V14.01,2013-03-31 05:06:00,
2013-03-31 00:11:00,34.7,32.9,29.84,ENE,59,0.0,1.0,93,0.00,,---,0.00,VWS V14.01,2013-03-31 05:11:00,
2013-03-31 00:16:00,34.4,32.6,29.84,ENE,59,1.0,1.0,93,0.00,,---,0.00,VWS V14.01,2013-03-31 05:16:00,
2013-03-31 00:26:00,34.1,32.6,29.84,ENE,59,0.0,1.0,94,0.00,,---,0.00,VWS V14.01,2013-03-31 05:26:00,
2013-03-31 00:31:00,34.1,32.6,29.84,ENE,59,0.0,1.0,94,0.00,,---,0.00,VWS V14.01,2013-03-31 05:31:00,
2013-03-31 00:41:00,33.8,32.3,29.84,NE,53,0.0,1.0,94,0.00,,---,0.00,VWS V14.01,2013-03-31 05:41:00,
2013-03-31 00:46:00,33.7,32.2,29.84,ENE,65,1.0,2.0,94,0.00,,---,0.00,VWS V14.01,2013-03-31 05:46:00,
2013-03-31 00:56:00,34.0,32.5,29.84,ENE,57,0.0,1.0,94,0.00,,---,0.00,VWS V14.01,2013-03-31 05:56:00,
2013-03-31 01:01:00,33.7,32.2,29.84,ENE,57,0.0,0.0,94,0.00,,---,0.00,VWS V14.01,2013-03-31 06:01:00,
2013-03-31 01:06:00,33.5,32.0,29.83,ENE,57,0.0,0.0,94,0.00,,---,0.00,VWS V14.01,2013-03-31 06:06:00,
2013-03-31 01:16:00,33.1,31.6,29.84,ENE,57,0.0,0.0,94,0.00,,---,0.00,VWS V14.01,2013-03-31 06:16:00,
2013-03-31 01:21:00,33.1,31.6,29.84,ENE,57,0.0,0.0,94,0.00,,---,0.00,VWS V14.01,2013-03-31 06:21:00,
2013-03-31 01:31:00,32.8,31.5,29.83,NE,49,0.0,2.0,95,0.00,,---,0.00,VWS V14.01,2013-03-31 06:31:00,
2013-03-31 01:36:00,32.8,31.5,29.84,NNW,348,1.0,3.0,95,0.00,,---,0.00,VWS V14.01,2013-03-31 06:36:00,
2013-03-31 01:41:00,33.2,31.9,29.84,NNW,342,3.0,4.0,95,0.00,,---,0.00,VWS V14.01,2013-03-31 06:41:00,
2013-03-31 01:46:00,33.4,32.1,29.84,North,351,2.0,3.0,95,0.00,,---,0.00,VWS V14.01,2013-03-31 06:46:00,
2013-03-31 01:51:00,33.2,31.9,29.84,North,5,0.0,4.0,95,0.00,,---,0.00,VWS V14.01,2013-03-31 06:51:00,
2013-03-31 01:56:00,32.9,31.6,29.84,NNW,344,1.0,2.0,95,0.00,,---,0.00,VWS V14.01,2013-03-31 06:56:00,
2013-03-31 02:01:00,33.1,31.8,29.84,North,360,1.0,2.0,95,0.00,,---,0.00,VWS V14.01,2013-03-31 07:01:00,
2013-03-31 02:11:00,32.7,31.4,29.83,North,360,0.0,1.0,95,0.00,,---,0.00,VWS V14.01,2013-03-31 07:11:00,
2013-03-31 02:16:00,32.8,31.8,29.83,North,360,0.0,2.0,96,0.00,,---,0.00,VWS V14.01,2013-03-31 07:16:00,
2013-03-31 02:26:00,32.7,31.7,29.83,North,360,0.0,1.0,96,0.00,,---,0.00,VWS V14.01,2013-03-31 07:26:00,
2013-03-31 02:36:00,32.4,31.4,29.83,North,360,1.0,1.0,96,0.00,,---,0.00,VWS V14.01,2013-03-31 07:36:00,
2013-03-31 02:41:00,32.4,31.4,29.83,NNW,346,1.0,2.0,96,0.00,,---,0.00,VWS V14.01,2013-03-31 07:41:00,
2013-03-31 02:51:00,32.8,31.8,29.83,NNW,345,1.0,2.0,96,0.00,,---,0.00,VWS V14.01,2013-03-31 07:51:00,
2013-03-31 02:56:00,32.7,31.7,29.83,North,355,1.0,2.0,96,0.00,,---,0.00,VWS V14.01,2013-03-31 07:56:00,
2013-03-31 03:01:00,32.5,31.5,29.83,North,355,2.0,2.0,96,0.00,,---,0.00,VWS V14.01,2013-03-31 08:01:00,
2013-03-31 03:11:00,32.5,31.5,29.83,North,355,0.0,2.0,96,0.00,,---,0.00,VWS V14.01,2013-03-31 08:11:00,
2013-03-31 03:16:00,32.2,31.2,29.83,North,355,0.0,2.0,96,0.00,,---,0.00,VWS V14.01,2013-03-31 08:16:00,
2013-03-31 03:21:00,31.8,30.8,29.83,North,355,2.0,2.0,96,0.00,,---,0.00,VWS V14.01,2013-03-31 08:21:00,
2013-03-31 03:26:00,31.5,30.5,29.84,NNE,21,3.0,3.0,96,0.00,,---,0.00,VWS V14.01,2013-03-31 08:26:00,
2013-03-31 03:31:00,31.6,30.6,29.84,NNE,24,3.0,3.0,96,0.00,,---,0.00,VWS V14.01,2013-03-31 08:31:00,
2013-03-31 03:36:00,31.8,30.8,29.84,NNE,26,2.0,4.0,96,0.00,,---,0.00,VWS V14.01,2013-03-31 08:36:00,
2013-03-31 03:41:00,32.5,31.7,29.84,NE,47,5.0,9.0,97,0.00,,---,0.00,VWS V14.01,2013-03-31 08:41:00,
2013-03-31 03:46:00,33.2,32.4,29.83,NNE,22,8.0,10.0,97,0.00,,---,0.00,VWS V14.01,2013-03-31 08:46:00,
2013-03-31 03:56:00,33.5,32.7,29.83,East,86,4.0,9.0,97,0.00,,---,0.00,VWS V14.01,2013-03-31 08:56:00,
2013-03-31 04:06:00,33.2,32.2,29.83,ENE,57,2.0,5.0,96,0.01,,---,0.01,VWS V14.01,2013-03-31 09:06:00,
2013-03-31 04:11:00,33.1,32.1,29.83,ENE,78,5.0,9.0,96,0.01,,---,0.01,VWS V14.01,2013-03-31 09:11:00,
2013-03-31 04:16:00,32.8,31.8,29.83,NE,51,3.0,6.0,96,0.01,,---,0.01,VWS V14.01,2013-03-31 09:16:00,
2013-03-31 04:26:00,32.2,31.2,29.83,East,97,2.0,9.0,96,0.01,,---,0.01,VWS V14.01,2013-03-31 09:26:00,
2013-03-31 04:31:00,32.2,31.2,29.83,ENE,67,1.0,4.0,96,0.01,,---,0.01,VWS V14.01,2013-03-31 09:31:00,
2013-03-31 04:36:00,32.2,31.2,29.83,NE,40,0.0,3.0,96,0.01,,---,0.01,VWS V14.01,2013-03-31 09:36:00,
2013-03-31 04:46:00,32.4,31.6,29.83,NNE,12,3.0,4.0,97,0.01,,---,0.01,VWS V14.01,2013-03-31 09:46:00,
2013-03-31 04:51:00,32.4,31.6,29.82,NNW,327,4.0,4.0,97,0.01,,---,0.01,VWS V14.01,2013-03-31 09:51:00,
2013-03-31 04:56:00,32.4,31.6,29.83,NNE,27,4.0,11.0,97,0.01,,---,0.01,VWS V14.01,2013-03-31 09:56:00,
2013-03-31 05:06:00,32.5,31.7,29.83,NNE,24,6.0,9.0,97,0.01,,---,0.01,VWS V14.01,2013-03-31 10:06:00,
2013-03-31 05:16:00,32.5,31.7,29.82,North,5,3.0,7.0,97,0.00,,---,0.01,VWS V14.01,2013-03-31 10:16:00,
2013-03-31 05:26:00,32.7,31.9,29.82,NE,36,5.0,7.0,97,0.00,,---,0.01,VWS V14.01,2013-03-31 10:26:00,
2013-03-31 05:36:00,32.5,31.7,29.82,NNE,17,5.0,9.0,97,0.00,,---,0.01,VWS V14.01,2013-03-31 10:36:00,
2013-03-31 05:41:00,32.5,31.7,29.81,NNE,26,4.0,7.0,97,0.00,,---,0.01,VWS V14.01,2013-03-31 10:41:00,
2013-03-31 05:51:00,32.5,31.7,29.81,North,355,1.0,7.0,97,0.00,,---,0.01,VWS V14.01,2013-03-31 10:51:00,
2013-03-31 05:56:00,32.5,31.7,29.81,North,355,3.0,11.0,97,0.00,,---,0.01,VWS V14.01,2013-03-31 10:56:00,
2013-03-31 06:01:00,32.4,31.6,29.81,North,355,4.0,7.0,97,0.00,,---,0.01,VWS V14.01,2013-03-31 11:01:00,
2013-03-31 06:11:00,32.4,31.6,29.81,NNE,22,2.0,5.0,97,0.00,,---,0.01,VWS V14.01,2013-03-31 11:11:00,
2013-03-31 06:16:00,32.4,31.6,29.81,NNE,24,2.0,5.0,97,0.00,,---,0.01,VWS V14.01,2013-03-31 11:16:00,
2013-03-31 06:31:00,32.1,31.4,29.81,North,355,4.0,6.0,97,0.00,,---,0.01,VWS V14.01,2013-03-31 11:31:00,
2013-03-31 06:36:00,32.1,31.4,29.81,North,355,2.0,5.0,97,0.00,,---,0.01,VWS V14.01,2013-03-31 11:36:00,
2013-03-31 06:41:00,32.1,31.4,29.81,North,355,3.0,7.0,97,0.00,,---,0.01,VWS V14.01,2013-03-31 11:41:00,
2013-03-31 06:46:00,32.1,31.4,29.82,North,355,2.0,4.0,97,0.00,,---,0.01,VWS V14.01,2013-03-31 11:46:00,
2013-03-31 06:56:00,32.1,31.4,29.82,North,355,4.0,7.0,97,0.00,,---,0.01,VWS V14.01,2013-03-31 11:56:00,
2013-03-31 07:01:00,31.9,31.1,29.82,NE,36,4.0,7.0,97,0.00,,---,0.01,VWS V14.01,2013-03-31 12:01:00,
2013-03-31 07:06:00,31.9,31.1,29.83,NNE,22,3.0,5.0,97,0.00,,---,0.01,VWS V14.01,2013-03-31 12:06:00,
2013-03-31 07:11:00,31.9,31.1,29.83,NNE,13,1.0,5.0,97,0.00,,---,0.01,VWS V14.01,2013-03-31 12:11:00,
2013-03-31 07:21:00,32.4,31.9,29.83,NE,46,2.0,10.0,98,0.00,,---,0.01,VWS V14.01,2013-03-31 12:21:00,
2013-03-31 07:26:00,32.4,31.9,29.83,NNE,28,2.0,9.0,98,0.00,,---,0.01,VWS V14.01,2013-03-31 12:26:00,
2013-03-31 07:31:00,32.5,32.0,29.83,NNW,347,3.0,9.0,98,0.00,,---,0.01,VWS V14.01,2013-03-31 12:31:00,
2013-03-31 07:41:00,32.8,32.3,29.83,NNE,28,6.0,9.0,98,0.00,,---,0.01,VWS V14.01,2013-03-31 12:41:00,
2013-03-31 07:46:00,32.8,32.3,29.83,NNE,24,7.0,10.0,98,0.00,,---,0.01,VWS V14.01,2013-03-31 12:46:00,
2013-03-31 07:56:00,33.1,32.3,29.82,NNE,21,8.0,10.0,97,0.00,,---,0.01,VWS V14.01,2013-03-31 12:56:00,
2013-03-31 08:01:00,33.4,32.9,29.83,North,5,7.0,11.0,98,0.00,,---,0.01,VWS V14.01,2013-03-31 13:01:00,
2013-03-31 08:06:00,33.7,32.9,29.84,NNE,13,8.0,11.0,97,0.00,,---,0.01,VWS V14.01,2013-03-31 13:06:00,
2013-03-31 08:16:00,33.8,33.0,29.84,NE,38,7.0,11.0,97,0.00,,---,0.01,VWS V14.01,2013-03-31 13:16:00,
2013-03-31 08:21:00,34.0,33.2,29.83,NNE,18,4.0,10.0,97,0.00,,---,0.01,VWS V14.01,2013-03-31 13:21:00,
2013-03-31 08:26:00,34.1,33.3,29.83,NNE,31,5.0,9.0,97,0.00,,---,0.01,VWS V14.01,2013-03-31 13:26:00,
2013-03-31 08:31:00,34.3,33.5,29.83,NNE,28,5.0,10.0,97,0.00,,---,0.01,VWS V14.01,2013-03-31 13:31:00,
2013-03-31 08:41:00,34.7,33.9,29.83,NNE,23,7.0,11.0,97,0.00,,---,0.01,VWS V14.01,2013-03-31 13:41:00,
2013-03-31 08:46:00,35.0,34.0,29.83,NNE,12,6.0,12.0,96,0.00,,---,0.01,VWS V14.01,2013-03-31 13:46:00,
2013-03-31 08:56:00,35.6,34.6,29.83,NNE,26,6.0,11.0,96,0.00,,---,0.01,VWS V14.01,2013-03-31 13:56:00,
2013-03-31 09:01:00,35.9,34.9,29.83,NNE,32,9.0,11.0,96,0.00,,---,0.01,VWS V14.01,2013-03-31 14:01:00,
2013-03-31 09:11:00,36.2,34.9,29.83,NNE,15,11.0,12.0,95,0.00,,---,0.01,VWS V14.01,2013-03-31 14:11:00,
2013-03-31 09:21:00,36.8,35.2,29.84,NNE,24,6.0,13.0,94,0.00,,---,0.01,VWS V14.01,2013-03-31 14:21:00,
2013-03-31 09:31:00,37.2,35.1,29.84,NNE,26,10.0,15.0,92,0.00,,---,0.01,VWS V14.01,2013-03-31 14:31:00,
2013-03-31 09:36:00,37.5,35.4,29.84,NNE,13,11.0,14.0,92,0.00,,---,0.01,VWS V14.01,2013-03-31 14:36:00,
2013-03-31 09:41:00,37.6,35.2,29.84,NNE,20,12.0,14.0,91,0.00,,---,0.01,VWS V14.01,2013-03-31 14:41:00,
2013-03-31 09:51:00,38.2,35.5,29.85,NE,40,12.0,15.0,90,0.00,,---,0.01,VWS V14.01,2013-03-31 14:51:00,
2013-03-31 09:56:00,38.5,35.5,29.85,East,97,4.0,17.0,89,0.00,,---,0.01,VWS V14.01,2013-03-31 14:56:00,
2013-03-31 10:01:00,38.6,35.1,29.85,ENE,72,5.0,17.0,87,0.00,,---,0.01,VWS V14.01,2013-03-31 15:01:00,
2013-03-31 10:11:00,38.8,35.0,29.85,ENE,64,12.0,14.0,86,0.00,,---,0.01,VWS V14.01,2013-03-31 15:11:00,
2013-03-31 10:16:00,39.2,35.1,29.85,NE,35,10.0,17.0,85,0.00,,---,0.01,VWS V14.01,2013-03-31 15:16:00,
2013-03-31 10:26:00,39.6,34.6,29.85,ENE,69,19.0,19.0,82,0.00,,---,0.01,VWS V14.01,2013-03-31 15:26:00,
2013-03-31 10:31:00,40.2,35.2,29.85,NE,37,13.0,19.0,82,0.00,,---,0.01,VWS V14.01,2013-03-31 15:31:00,
2013-03-31 10:36:00,40.3,35.2,29.85,ESE,113,11.0,18.0,82,0.00,,---,0.01,VWS V14.01,2013-03-31 15:36:00,
2013-03-31 10:41:00,40.1,34.8,29.86,ENE,76,11.0,20.0,81,0.00,,---,0.01,VWS V14.01,2013-03-31 15:41:00,
2013-03-31 10:46:00,40.3,34.9,29.86,NNE,18,11.0,20.0,81,0.00,,---,0.01,VWS V14.01,2013-03-31 15:46:00,
2013-03-31 11:01:00,39.9,33.9,29.87,ENE,76,14.0,19.0,79,0.00,,---,0.01,VWS V14.01,2013-03-31 16:01:00,
2013-03-31 11:06:00,39.5,33.2,29.88,East,101,12.0,20.0,78,0.00,,---,0.01,VWS V14.01,2013-03-31 16:06:00,
2013-03-31 11:16:00,40.1,34.1,29.88,ENE,71,12.0,18.0,79,0.00,,---,0.01,VWS V14.01,2013-03-31 16:16:00,
2013-03-31 11:26:00,39.8,33.8,29.88,ENE,69,9.0,20.0,79,0.00,,---,0.01,VWS V14.01,2013-03-31 16:26:00,
2013-03-31 11:31:00,39.5,33.2,29.89,NE,51,14.0,19.0,78,0.00,,---,0.01,VWS V14.01,2013-03-31 16:31:00,
2013-03-31 11:36:00,38.9,32.6,29.89,East,90,18.0,27.0,78,0.00,,---,0.01,VWS V14.01,2013-03-31 16:36:00,
2013-03-31 11:46:00,39.2,32.3,29.89,ESE,105,17.0,20.0,76,0.00,,---,0.01,VWS V14.01,2013-03-31 16:46:00,
2013-03-31 11:56:00,39.5,32.9,29.89,ENE,70,17.0,23.0,77,0.00,,---,0.01,VWS V14.01,2013-03-31 16:56:00,
2013-03-31 12:01:00,39.6,32.7,29.89,NNW,343,12.0,20.0,76,0.00,,---,0.01,VWS V14.01,2013-03-31 17:01:00,
2013-03-31 12:06:00,39.5,32.9,29.89,NE,40,14.0,21.0,77,0.00,,---,0.01,VWS V14.01,2013-03-31 17:06:00,
2013-03-31 12:16:00,39.3,31.7,29.89,NE,47,20.0,22.0,74,0.00,,---,0.01,VWS V14.01,2013-03-31 17:16:00,
2013-03-31 12:21:00,39.8,32.5,29.89,ENE,71,14.0,22.0,75,0.00,,---,0.01,VWS V14.01,2013-03-31 17:21:00,
2013-03-31 12:26:00,40.5,33.5,29.89,ENE,73,21.0,24.0,76,0.00,,---,0.01,VWS V14.01,2013-03-31 17:26:00,
2013-03-31 12:36:00,40.9,33.6,29.89,ENE,57,13.0,21.0,75,0.00,,---,0.01,VWS V14.01,2013-03-31 17:36:00,
2013-03-31 12:51:00,39.6,31.3,29.89,NE,54,16.0,22.0,72,0.00,,---,0.01,VWS V14.01,2013-03-31 17:51:00,
2013-03-31 12:56:00,39.2,31.3,29.90,East,84,13.0,21.0,73,0.00,,---,0.01,VWS V14.01,2013-03-31 17:56:00,
2013-03-31 13:06:00,39.3,31.4,29.89,East,90,19.0,19.0,73,0.00,,---,0.01,VWS V14.01,2013-03-31 18:06:00,
2013-03-31 13:16:00,40.1,32.5,29.89,ENE,74,12.0,22.0,74,0.00,,---,0.01,VWS V14.01,2013-03-31 18:16:00,
2013-03-31 13:21:00,40.2,31.2,29.90,NE,55,14.0,22.0,70,0.00,,---,0.01,VWS V14.01,2013-03-31 18:21:00,
2013-03-31 13:26:00,40.6,31.6,29.89,East,95,14.0,20.0,70,0.00,,---,0.01,VWS V14.01,2013-03-31 18:26:00,
2013-03-31 13:36:00,40.6,30.9,29.90,NE,53,16.0,22.0,68,0.00,,---,0.01,VWS V14.01,2013-03-31 18:36:00,
2013-03-31 13:51:00,40.9,31.9,29.90,ESE,105,23.0,23.0,70,0.00,,---,0.01,VWS V14.01,2013-03-31 18:51:00,
2013-03-31 13:56:00,40.9,31.5,29.90,NE,42,18.0,23.0,69,0.00,,---,0.01,VWS V14.01,2013-03-31 18:56:00,
2013-03-31 14:01:00,41.1,31.7,29.90,NE,53,18.0,21.0,69,0.00,,---,0.01,VWS V14.01,2013-03-31 19:01:00,
2013-03-31 14:06:00,41.1,31.4,29.90,ENE,64,15.0,20.0,68,0.00,,---,0.01,VWS V14.01,2013-03-31 19:06:00,
2013-03-31 14:16:00,39.8,30.1,29.90,ENE,72,14.0,22.0,68,0.00,,---,0.01,VWS V14.01,2013-03-31 19:16:00,
2013-03-31 14:21:00,39.5,29.8,29.90,NE,53,14.0,22.0,68,0.00,,---,0.01,VWS V14.01,2013-03-31 19:21:00,
2013-03-31 14:26:00,39.5,30.9,29.90,ENE,74,8.0,17.0,71,0.00,,---,0.01,VWS V14.01,2013-03-31 19:26:00,
2013-03-31 14:31:00,39.8,30.1,29.90,ENE,72,10.0,21.0,68,0.00,,---,0.01,VWS V14.01,2013-03-31 19:31:00,
2013-03-31 14:36:00,40.1,30.4,29.90,ENE,67,13.0,21.0,68,0.00,,---,0.01,VWS V14.01,2013-03-31 19:36:00,
2013-03-31 14:46:00,39.9,30.9,29.90,NE,50,13.0,20.0,70,0.00,,---,0.01,VWS V14.01,2013-03-31 19:46:00,
2013-03-31 14:51:00,40.6,31.2,29.89,NE,51,13.0,19.0,69,0.00,,---,0.01,VWS V14.01,2013-03-31 19:51:00,
2013-03-31 14:56:00,40.1,30.0,29.90,NNE,30,16.0,20.0,67,0.00,,---,0.01,VWS V14.01,2013-03-31 19:56:00,
2013-03-31 15:06:00,40.5,30.8,29.90,East,90,16.0,20.0,68,0.00,,---,0.01,VWS V14.01,2013-03-31 20:06:00,
2013-03-31 15:16:00,40.5,30.0,29.91,ENE,57,10.0,19.0,66,0.00,,---,0.01,VWS V14.01,2013-03-31 20:16:00,
2013-03-31 15:21:00,40.1,30.4,29.91,ENE,67,12.0,21.0,68,0.00,,---,0.01,VWS V14.01,2013-03-31 20:21:00,
2013-03-31 15:26:00,39.5,29.8,29.91,ENE,74,9.0,22.0,68,0.00,,---,0.01,VWS V14.01,2013-03-31 20:26:00,
2013-03-31 15:36:00,39.5,29.5,29.91,NE,44,12.0,18.0,67,0.00,,---,0.01,VWS V14.01,2013-03-31 20:36:00,
2013-03-31 15:46:00,38.8,28.8,29.91,ENE,73,12.0,17.0,67,0.00,,---,0.01,VWS V14.01,2013-03-31 20:46:00,
2013-03-31 15:56:00,40.6,31.2,29.91,NE,49,18.0,19.0,69,0.00,,---,0.01,VWS V14.01,2013-03-31 20:56:00,
2013-03-31 16:01:00,41.3,30.4,29.91,ENE,71,12.0,19.0,65,0.00,,---,0.01,VWS V14.01,2013-03-31 21:01:00,
2013-03-31 16:26:00,39.9,27.6,29.91,ENE,63,10.0,18.0,61,0.00,,---,0.01,VWS V14.01,2013-03-31 21:26:00,
2013-03-31 16:31:00,40.1,27.4,29.92,ENE,58,9.0,18.0,60,0.00,,---,0.01,VWS V14.01,2013-03-31 21:31:00,
2013-03-31 16:41:00,40.5,28.1,29.91,ENE,76,14.0,18.0,61,0.00,,---,0.01,VWS V14.01,2013-03-31 21:41:00,
2013-03-31 16:56:00,40.5,27.7,29.92,East,88,11.0,22.0,60,0.00,,---,0.01,VWS V14.01,2013-03-31 21:56:00,
2013-03-31 17:06:00,40.1,26.9,29.92,ENE,77,11.0,20.0,59,0.00,,---,0.01,VWS V14.01,2013-03-31 22:06:00,
2013-03-31 17:16:00,39.9,28.0,29.92,NE,53,13.0,19.0,62,0.00,,---,0.01,VWS V14.01,2013-03-31 22:16:00,
2013-03-31 17:26:00,39.2,25.3,29.93,ENE,65,13.0,20.0,57,0.00,,---,0.01,VWS V14.01,2013-03-31 22:26:00,
2013-03-31 17:36:00,37.9,25.3,29.93,East,101,16.0,18.0,60,0.00,,---,0.01,VWS V14.01,2013-03-31 22:36:00,
2013-03-31 17:41:00,38.0,25.8,29.94,East,90,15.0,19.0,61,0.00,,---,0.01,VWS V14.01,2013-03-31 22:41:00,
2013-03-31 17:46:00,38.5,26.6,29.94,NE,43,10.0,16.0,62,0.00,,---,0.01,VWS V14.01,2013-03-31 22:46:00,
2013-03-31 18:06:00,37.9,25.7,29.94,ENE,74,10.0,16.0,61,0.00,,---,0.01,VWS V14.01,2013-03-31 23:06:00,
2013-03-31 18:11:00,37.6,25.0,29.94,ESE,102,11.0,19.0,60,0.00,,---,0.01,VWS V14.01,2013-03-31 23:11:00,
2013-03-31 18:21:00,36.5,24.3,29.95,East,98,10.0,15.0,61,0.00,,---,0.01,VWS V14.01,2013-03-31 23:21:00,
2013-03-31 18:26:00,35.8,24.1,29.95,ENE,69,10.0,17.0,62,0.00,,---,0.01,VWS V14.01,2013-03-31 23:26:00,
2013-03-31 18:36:00,34.9,23.6,29.96,ENE,69,19.0,19.0,63,0.00,,---,0.01,VWS V14.01,2013-03-31 23:36:00,
2013-03-31 18:41:00,34.4,22.7,29.96,ENE,76,14.0,19.0,62,0.00,,---,0.01,VWS V14.01,2013-03-31 23:41:00,
2013-03-31 18:51:00,34.0,23.9,29.96,East,92,10.0,14.0,66,0.00,,---,0.01,VWS V14.01,2013-03-31 23:51:00,
2013-03-31 19:06:00,33.4,24.3,29.97,NE,51,10.0,14.0,69,0.00,,---,0.01,VWS V14.01,2013-04-01 00:06:00,
2013-03-31 19:21:00,32.8,22.7,29.97,East,94,10.0,16.0,66,0.00,,---,0.01,VWS V14.01,2013-04-01 00:21:00,
2013-03-31 19:31:00,32.2,23.2,29.98,East,94,10.0,16.0,69,0.00,,---,0.01,VWS V14.01,2013-04-01 00:31:00,
2013-03-31 19:36:00,31.9,22.5,29.98,East,98,8.0,14.0,68,0.00,,---,0.01,VWS V14.01,2013-04-01 00:36:00,
2013-03-31 19:46:00,31.5,23.2,29.98,East,86,10.0,14.0,71,0.00,,---,0.01,VWS V14.01,2013-04-01 00:46:00,
2013-03-31 19:56:00,31.2,22.9,29.99,NE,38,11.0,16.0,71,0.00,,---,0.01,VWS V14.01,2013-04-01 00:56:00,
2013-03-31 20:01:00,31.0,23.0,29.99,East,88,12.0,15.0,72,0.00,,---,0.01,VWS V14.01,2013-04-01 01:01:00,
2013-03-31 20:11:00,30.9,23.3,30.00,ENE,65,11.0,17.0,73,0.00,,---,0.01,VWS V14.01,2013-04-01 01:11:00,
2013-03-31 20:16:00,30.7,23.1,30.00,ENE,57,16.0,19.0,73,0.00,,---,0.01,VWS V14.01,2013-04-01 01:16:00,
2013-03-31 20:26:00,30.6,23.3,30.00,NE,52,14.0,17.0,74,0.00,,---,0.01,VWS V14.01,2013-04-01 01:26:00,
2013-03-31 20:31:00,30.4,23.4,30.00,ENE,63,9.0,16.0,75,0.00,,---,0.01,VWS V14.01,2013-04-01 01:31:00,
2013-03-31 20:46:00,29.7,22.1,30.01,NE,52,12.0,17.0,73,0.00,,---,0.01,VWS V14.01,2013-04-01 01:46:00,
2013-03-31 20:56:00,29.5,23.2,30.02,ESE,107,9.0,15.0,77,0.00,,---,0.01,VWS V14.01,2013-04-01 01:56:00,
2013-03-31 21:01:00,29.3,22.7,30.03,ENE,62,14.0,15.0,76,0.00,,---,0.01,VWS V14.01,2013-04-01 02:01:00,
2013-03-31 21:06:00,29.1,22.2,30.02,ENE,65,14.0,18.0,75,0.00,,---,0.01,VWS V14.01,2013-04-01 02:06:00,
2013-03-31 21:11:00,29.0,22.1,30.02,NNE,32,13.0,18.0,75,0.00,,---,0.01,VWS V14.01,2013-04-01 02:11:00,
2013-03-31 21:21:00,29.0,22.7,30.03,NE,56,13.0,17.0,77,0.00,,---,0.01,VWS V14.01,2013-04-01 02:21:00,
2013-03-31 21:31:00,28.7,22.1,30.04,ESE,123,9.0,17.0,76,0.00,,---,0.01,VWS V14.01,2013-04-01 02:31:00,
2013-03-31 21:36:00,28.5,21.6,30.04,ENE,72,9.0,18.0,75,0.00,,---,0.01,VWS V14.01,2013-04-01 02:36:00,
2013-03-31 21:46:00,27.9,19.4,30.05,ENE,65,12.0,19.0,70,0.00,,---,0.01,VWS V14.01,2013-04-01 02:46:00,
2013-03-31 21:51:00,27.8,19.3,30.05,SE,134,11.0,18.0,70,0.00,,---,0.01,VWS V14.01,2013-04-01 02:51:00,
2013-03-31 22:01:00,27.6,19.4,30.06,NNE,30,10.0,17.0,71,0.00,,---,0.01,VWS V14.01,2013-04-01 03:01:00,
2013-03-31 22:11:00,27.3,19.1,30.06,East,83,9.0,17.0,71,0.00,,---,0.01,VWS V14.01,2013-04-01 03:11:00,
2013-03-31 22:21:00,27.2,19.1,30.06,East,84,18.0,20.0,71,0.00,,---,0.01,VWS V14.01,2013-04-01 03:21:00,
2013-03-31 22:26:00,27.0,19.2,30.06,SE,125,11.0,18.0,72,0.00,,---,0.01,VWS V14.01,2013-04-01 03:26:00,
2013-03-31 22:36:00,26.9,19.7,30.07,East,88,11.0,18.0,74,0.00,,---,0.01,VWS V14.01,2013-04-01 03:36:00,
2013-03-31 22:46:00,26.6,19.1,30.07,ENE,71,10.0,18.0,73,0.00,,---,0.01,VWS V14.01,2013-04-01 03:46:00,
2013-03-31 22:56:00,26.4,18.9,30.07,ENE,67,9.0,17.0,73,0.00,,---,0.01,VWS V14.01,2013-04-01 03:56:00,
2013-03-31 23:01:00,26.3,18.8,30.08,ENE,64,15.0,20.0,73,0.00,,---,0.01,VWS V14.01,2013-04-01 04:01:00,
2013-03-31 23:11:00,26.1,19.0,30.08,East,92,10.0,17.0,74,0.00,,---,0.01,VWS V14.01,2013-04-01 04:11:00,
2013-03-31 23:16:00,26.0,18.9,30.08,ENE,73,12.0,19.0,74,0.00,,---,0.01,VWS V14.01,2013-04-01 04:16:00,
2013-03-31 23:21:00,26.0,18.9,30.08,NNE,30,11.0,17.0,74,0.00,,---,0.01,VWS V14.01,2013-04-01 04:21:00,
2013-03-31 23:26:00,25.8,18.7,30.08,NE,45,12.0,18.0,74,0.00,,---,0.01,VWS V14.01,2013-04-01 04:26:00,
2013-03-31 23:31:00,25.8,18.7,30.08,NE,46,12.0,16.0,74,0.00,,---,0.01,VWS V14.01,2013-04-01 04:31:00,
2013-03-31 23:46:00,25.7,19.2,30.08,East,90,9.0,17.0,76,0.00,,---,0.01,VWS V14.01,2013-04-01 04:46:00,
2013-03-31 23:56:00,25.4,18.3,30.09,NE,40,15.0,17.0,74,0.00,,---,0.01,VWS V14.01,2013-04-01 04:56:00,